This is the latest recevied weather packets stored in our database for station/object KA3RQR. If no packets are shown the sender has not sent any weather packets the latest 10 day(s).
| Time | Temp. | Humidity | Pressure | Rain* | Wind** | Luminosity | Snow |
|---|---|---|---|---|---|---|---|
| 1778161313 | 11.67° C | 75% | 1013.3 hPa | 0 mm | - | 40 W/m² | - |
| 1778161009 | 11.67° C | 75% | 1013.4 hPa | 0 mm | - | 45 W/m² | - |
| 1778160707 | 11.67° C | 74% | 1013.5 hPa | 0 mm | - | 55 W/m² | - |
| 1778160404 | 11.67° C | 73% | 1013.4 hPa | 0 mm | - | 38 W/m² | - |
| 1778160100 | 11.67° C | 78% | 1013.3 hPa | 0 mm | - | 40 W/m² | - |
| 1778159797 | 11.67° C | 80% | 1013.1 hPa | 0 mm | - | 45 W/m² | - |
| 1778159494 | 11.67° C | 83% | 1012.9 hPa | 0 mm | - | 40 W/m² | - |
| 1778159191 | 11.67° C | 82% | 1013.3 hPa | 0 mm | - | 37 W/m² | - |
| 1778158889 | 11.67° C | 81% | 1013.1 hPa | 0 mm | - | 33 W/m² | - |
| 1778158588 | 11.67° C | 81% | 1013 hPa | 0 mm | - | 32 W/m² | - |
| 1778158285 | 11.67° C | 81% | 1013 hPa | 0 mm | - | 34 W/m² | - |
| 1778157980 | 11.67° C | 81% | 1013.1 hPa | 0 mm | - | 37 W/m² | - |
| 1778157679 | 11.67° C | 81% | 1013 hPa | 0 mm | - | 33 W/m² | - |
| 1778157376 | 11.67° C | 81% | 1013 hPa | 0 mm | - | 33 W/m² | - |
| 1778157073 | 11.67° C | 81% | 1013 hPa | 0 mm | - | 19 W/m² | - |
| 1778156768 | 11.67° C | 80% | 1013.3 hPa | 0 mm | - | 20 W/m² | - |
| 1778156464 | 11.67° C | 80% | 1013.2 hPa | 0 mm | - | 17 W/m² | - |
| 1778156160 | 11.67° C | 80% | 1013.1 hPa | 0 mm | - | 17 W/m² | - |
| 1778155857 | 11.67° C | 80% | 1013.1 hPa | 0 mm | - | 18 W/m² | - |
| 1778155553 | 11.67° C | 80% | 1012.9 hPa | 0 mm | - | 16 W/m² | - |
| 1778155250 | 11.67° C | 81% | 1013 hPa | 0 mm | - | 16 W/m² | - |
| 1778154946 | 11.67° C | 82% | 1012.9 hPa | 0 mm | - | 16 W/m² | - |
| 1778154642 | 11.67° C | 82% | 1012.8 hPa | 0 mm | - | 20 W/m² | - |
| 1778154338 | 11.67° C | 83% | 1012.9 hPa | 0 mm | - | 21 W/m² | - |
| 1778154036 | 11.67° C | 82% | 1012.8 hPa | 0 mm | - | 17 W/m² | - |
* Rain latest hour (hover to see other rain measurements)
** Current wind speed in m/s (hover to see current wind gust speed)